Location: Nairn
(57.5833°N, 3.8667°W)
Time: 02:35:17
(UTC+00:00)

Meteor 1-29 - Pass Details

Date: 07 August 2020
Orbit: 438 x 461 km, 97.7° (Epoch: 25 September)

Event Time Altitude Azimuth Distance (km) Brightness Sun altitude
Rises 00:44:21 0° 22° (NNE) 2,506 8.2 -15.9°
Reaches altitude 10° 00:46:37 10° 34° (NE) 1,626 6.7 -15.9°
Maximum altitude 00:49:41 28° 96° (E) 899 4.4 -15.8°
Enters shadow 00:51:05 21° 135° (SE) 1,088 4.5 -15.8°
